Time,TemperatureF,DewpointF,PressureIn,WindDirection,WindDirectionDegrees,WindSpeedMPH,WindSpeedGustMPH,Humidity,HourlyPrecipIn,Conditions,Clouds,dailyrainin,SolarRadiationWatts/m^2,SoftwareType,DateUTC
2013-05-09 00:02:00,58.0,21.0,-100.00,NW,325,1.0,4.0,24,0.00,,,0.00,0.000000,,2013-05-09 06:02:00,
2013-05-09 00:12:00,58.0,21.0,-100.00,NW,325,1.0,4.0,24,0.00,,,0.00,0.000000,,2013-05-09 06:12:00,
2013-05-09 00:21:00,58.0,21.0,-100.00,NW,325,1.0,4.0,24,0.00,,,0.00,0.000000,,2013-05-09 06:21:00,
2013-05-09 00:32:00,58.0,21.0,-100.00,NW,325,1.0,4.0,24,0.00,,,0.00,0.000000,,2013-05-09 06:32:00,
2013-05-09 00:42:00,52.0,22.0,-100.00,NNE,23,1.0,5.0,30,0.00,,,0.00,0.000000,,2013-05-09 06:42:00,
2013-05-09 01:01:00,52.0,22.0,-100.00,NNE,23,1.0,5.0,30,0.00,,,0.00,0.000000,,2013-05-09 07:01:00,
2013-05-09 01:12:00,52.0,22.0,-100.00,NNE,23,1.0,5.0,30,0.00,,,0.00,0.000000,,2013-05-09 07:12:00,
2013-05-09 01:21:00,52.0,22.0,-100.00,NNE,23,1.0,5.0,30,0.00,,,0.00,0.000000,,2013-05-09 07:21:00,
2013-05-09 01:32:00,52.0,22.0,-100.00,NNE,23,1.0,5.0,30,0.00,,,0.00,0.000000,,2013-05-09 07:32:00,
2013-05-09 01:42:00,46.0,28.0,-100.00,NE,50,0.0,0.0,50,0.00,,,0.00,0.000000,,2013-05-09 07:42:00,
2013-05-09 02:02:00,46.0,28.0,-100.00,NE,50,0.0,0.0,50,0.00,,,0.00,0.000000,,2013-05-09 08:02:00,
2013-05-09 02:11:00,46.0,28.0,-100.00,NE,50,0.0,0.0,50,0.00,,,0.00,0.000000,,2013-05-09 08:11:00,
2013-05-09 02:21:00,46.0,28.0,-100.00,NE,50,0.0,0.0,50,0.00,,,0.00,0.000000,,2013-05-09 08:21:00,
2013-05-09 02:32:00,46.0,28.0,-100.00,NE,50,0.0,0.0,50,0.00,,,0.00,0.000000,,2013-05-09 08:32:00,
2013-05-09 02:42:00,43.0,28.0,-100.00,ENE,61,0.0,0.0,55,0.00,,,0.00,0.000000,,2013-05-09 08:42:00,
2013-05-09 03:02:00,43.0,28.0,-100.00,ENE,61,0.0,0.0,55,0.00,,,0.00,0.000000,,2013-05-09 09:02:00,
2013-05-09 03:11:00,43.0,28.0,-100.00,ENE,61,0.0,0.0,55,0.00,,,0.00,0.000000,,2013-05-09 09:11:00,
2013-05-09 03:21:00,43.0,28.0,-100.00,ENE,61,0.0,0.0,55,0.00,,,0.00,0.000000,,2013-05-09 09:21:00,
2013-05-09 03:32:00,43.0,28.0,-100.00,ENE,61,0.0,0.0,55,0.00,,,0.00,0.000000,,2013-05-09 09:32:00,
2013-05-09 03:42:00,42.0,34.0,-100.00,NE,49,0.0,0.0,72,0.00,,,0.00,0.000000,,2013-05-09 09:42:00,
2013-05-09 04:02:00,42.0,34.0,-100.00,NE,49,0.0,0.0,72,0.00,,,0.00,0.000000,,2013-05-09 10:02:00,
2013-05-09 04:12:00,42.0,34.0,-100.00,NE,49,0.0,0.0,72,0.00,,,0.00,0.000000,,2013-05-09 10:12:00,
2013-05-09 04:22:00,42.0,34.0,-100.00,NE,49,0.0,0.0,72,0.00,,,0.00,0.000000,,2013-05-09 10:22:00,
2013-05-09 04:33:00,42.0,34.0,-100.00,NE,49,0.0,0.0,72,0.00,,,0.00,0.000000,,2013-05-09 10:33:00,
2013-05-09 05:02:00,42.0,31.0,-100.00,North,358,1.0,1.0,66,0.00,,,0.00,0.000000,,2013-05-09 11:02:00,
2013-05-09 05:12:00,42.0,31.0,-100.00,North,358,1.0,1.0,66,0.00,,,0.00,0.000000,,2013-05-09 11:12:00,
2013-05-09 05:22:00,42.0,31.0,-100.00,North,358,1.0,1.0,66,0.00,,,0.00,0.000000,,2013-05-09 11:22:00,
2013-05-09 05:32:00,42.0,31.0,-100.00,North,358,1.0,1.0,66,0.00,,,0.00,0.000000,,2013-05-09 11:32:00,
2013-05-09 05:41:00,42.0,31.0,-100.00,North,358,1.0,1.0,66,0.00,,,0.00,0.000000,,2013-05-09 11:41:00,
2013-05-09 05:42:00,44.0,30.0,-100.00,North,352,1.0,1.0,57,0.00,,,0.00,0.000000,,2013-05-09 11:42:00,
2013-05-09 06:01:00,44.0,30.0,-100.00,North,352,1.0,1.0,57,0.00,,,0.00,0.000000,,2013-05-09 12:01:00,
2013-05-09 06:11:00,44.0,30.0,-100.00,North,352,1.0,1.0,57,0.00,,,0.00,0.000000,,2013-05-09 12:11:00,
2013-05-09 06:22:00,44.0,30.0,-100.00,North,352,1.0,1.0,57,0.00,,,0.00,0.000000,,2013-05-09 12:22:00,
2013-05-09 06:32:00,44.0,30.0,-100.00,North,352,1.0,1.0,57,0.00,,,0.00,0.000000,,2013-05-09 12:32:00,
2013-05-09 06:42:00,45.0,31.0,-100.00,North,3,0.0,0.0,57,0.00,,,0.00,9.000000,,2013-05-09 12:42:00,
2013-05-09 07:01:00,45.0,31.0,-100.00,North,3,0.0,0.0,57,0.00,,,0.00,9.000000,,2013-05-09 13:01:00,
2013-05-09 07:12:00,45.0,31.0,-100.00,North,3,0.0,0.0,57,0.00,,,0.00,9.000000,,2013-05-09 13:12:00,
2013-05-09 07:22:00,45.0,31.0,-100.00,North,3,0.0,0.0,57,0.00,,,0.00,9.000000,,2013-05-09 13:22:00,
2013-05-09 07:32:00,45.0,31.0,-100.00,North,3,0.0,0.0,57,0.00,,,0.00,9.000000,,2013-05-09 13:32:00,
2013-05-09 08:02:00,50.0,27.0,-100.00,NNE,32,2.0,5.0,41,0.00,,,0.00,53.000000,,2013-05-09 14:02:00,
2013-05-09 08:11:00,50.0,27.0,-100.00,NNE,32,2.0,5.0,41,0.00,,,0.00,53.000000,,2013-05-09 14:11:00,
2013-05-09 08:21:00,50.0,27.0,-100.00,NNE,32,2.0,5.0,41,0.00,,,0.00,53.000000,,2013-05-09 14:21:00,
2013-05-09 08:32:00,50.0,27.0,-100.00,NNE,32,2.0,5.0,41,0.00,,,0.00,53.000000,,2013-05-09 14:32:00,
2013-05-09 08:41:00,50.0,27.0,-100.00,NNE,32,2.0,5.0,41,0.00,,,0.00,53.000000,,2013-05-09 14:41:00,
2013-05-09 08:42:00,59.0,28.0,-100.00,NE,48,2.0,5.0,31,0.00,,,0.00,347.000000,,2013-05-09 14:42:00,
2013-05-09 09:01:00,59.0,28.0,-100.00,NE,48,2.0,5.0,31,0.00,,,0.00,347.000000,,2013-05-09 15:01:00,
2013-05-09 09:11:00,59.0,28.0,-100.00,NE,48,2.0,5.0,31,0.00,,,0.00,347.000000,,2013-05-09 15:11:00,
2013-05-09 09:22:00,59.0,28.0,-100.00,NE,48,2.0,5.0,31,0.00,,,0.00,347.000000,,2013-05-09 15:22:00,
2013-05-09 09:33:00,59.0,28.0,-100.00,NE,48,2.0,5.0,31,0.00,,,0.00,347.000000,,2013-05-09 15:33:00,
2013-05-09 09:42:00,66.0,30.0,-100.00,NNE,23,2.0,6.0,26,0.00,,,0.00,551.000000,,2013-05-09 15:42:00,
2013-05-09 10:03:00,66.0,30.0,-100.00,NNE,23,2.0,6.0,26,0.00,,,0.00,551.000000,,2013-05-09 16:03:00,
2013-05-09 10:12:00,66.0,30.0,-100.00,NNE,23,2.0,6.0,26,0.00,,,0.00,551.000000,,2013-05-09 16:12:00,
2013-05-09 10:22:00,66.0,30.0,-100.00,NNE,23,2.0,6.0,26,0.00,,,0.00,551.000000,,2013-05-09 16:22:00,
2013-05-09 10:33:00,66.0,30.0,-100.00,NNE,23,2.0,6.0,26,0.00,,,0.00,551.000000,,2013-05-09 16:33:00,
2013-05-09 10:42:00,71.0,29.0,-100.00,WNW,285,3.0,6.0,21,0.00,,,0.00,733.000000,,2013-05-09 16:42:00,
2013-05-09 11:02:00,71.0,29.0,-100.00,WNW,285,3.0,6.0,21,0.00,,,0.00,733.000000,,2013-05-09 17:02:00,
2013-05-09 11:12:00,71.0,29.0,-100.00,WNW,285,3.0,6.0,21,0.00,,,0.00,733.000000,,2013-05-09 17:12:00,
2013-05-09 11:21:00,71.0,29.0,-100.00,WNW,285,3.0,6.0,21,0.00,,,0.00,733.000000,,2013-05-09 17:21:00,
2013-05-09 11:32:00,71.0,29.0,-100.00,WNW,285,3.0,6.0,21,0.00,,,0.00,733.000000,,2013-05-09 17:32:00,
2013-05-09 11:42:00,74.0,29.0,-100.00,South,183,3.0,6.0,19,0.00,,,0.00,828.000000,,2013-05-09 17:42:00,
2013-05-09 12:01:00,74.0,29.0,-100.00,South,183,3.0,6.0,19,0.00,,,0.00,828.000000,,2013-05-09 18:01:00,
2013-05-09 12:12:00,74.0,29.0,-100.00,South,183,3.0,6.0,19,0.00,,,0.00,828.000000,,2013-05-09 18:12:00,
2013-05-09 12:21:00,74.0,29.0,-100.00,South,183,3.0,6.0,19,0.00,,,0.00,828.000000,,2013-05-09 18:21:00,
2013-05-09 12:32:00,74.0,29.0,-100.00,South,183,3.0,6.0,19,0.00,,,0.00,828.000000,,2013-05-09 18:32:00,
2013-05-09 13:12:00,74.0,28.0,-100.00,South,176,4.0,11.0,18,0.00,,,-99.99,939.000000,,2013-05-09 19:12:00,
2013-05-09 13:21:00,74.0,28.0,-100.00,South,176,4.0,11.0,18,0.00,,,-99.99,939.000000,,2013-05-09 19:21:00,
2013-05-09 13:31:00,74.0,28.0,-100.00,South,176,4.0,11.0,18,0.00,,,-99.99,939.000000,,2013-05-09 19:31:00,
2013-05-09 13:41:00,74.0,28.0,-100.00,South,176,4.0,11.0,18,0.00,,,-99.99,939.000000,,2013-05-09 19:41:00,
2013-05-09 13:42:00,70.0,27.0,-100.00,WSW,255,5.0,9.0,20,0.00,,,0.00,639.000000,,2013-05-09 19:42:00,
2013-05-09 14:01:00,70.0,27.0,-100.00,WSW,255,5.0,9.0,20,0.00,,,0.00,639.000000,,2013-05-09 20:01:00,
2013-05-09 14:11:00,70.0,27.0,-100.00,WSW,255,5.0,9.0,20,0.00,,,0.00,639.000000,,2013-05-09 20:11:00,
2013-05-09 14:22:00,70.0,27.0,-100.00,WSW,255,5.0,9.0,20,0.00,,,0.00,639.000000,,2013-05-09 20:22:00,
2013-05-09 14:32:00,70.0,27.0,-100.00,WSW,255,5.0,9.0,20,0.00,,,0.00,639.000000,,2013-05-09 20:32:00,
2013-05-09 14:42:00,76.0,27.0,-100.00,SW,221,4.0,9.0,16,0.00,,,0.00,865.000000,,2013-05-09 20:42:00,
2013-05-09 15:12:00,76.0,27.0,-100.00,SW,221,4.0,9.0,16,0.00,,,0.00,865.000000,,2013-05-09 21:12:00,
2013-05-09 15:22:00,76.0,27.0,-100.00,SW,221,4.0,9.0,16,0.00,,,0.00,865.000000,,2013-05-09 21:22:00,
2013-05-09 15:32:00,76.0,27.0,-100.00,SW,221,4.0,9.0,16,0.00,,,0.00,865.000000,,2013-05-09 21:32:00,
2013-05-09 15:42:00,73.0,23.0,-100.00,East,88,2.0,7.0,15,0.00,,,0.00,677.000000,,2013-05-09 21:42:00,
2013-05-09 16:03:00,73.0,23.0,-100.00,East,88,2.0,7.0,15,0.00,,,0.00,677.000000,,2013-05-09 22:03:00,
2013-05-09 16:13:00,73.0,23.0,-100.00,East,88,2.0,7.0,15,0.00,,,0.00,677.000000,,2013-05-09 22:13:00,
2013-05-09 16:23:00,73.0,23.0,-100.00,East,88,2.0,7.0,15,0.00,,,0.00,677.000000,,2013-05-09 22:23:00,
2013-05-09 16:33:00,73.0,23.0,-100.00,East,88,2.0,7.0,15,0.00,,,0.00,677.000000,,2013-05-09 22:33:00,
2013-05-09 16:42:00,73.0,23.0,-100.00,West,261,2.0,6.0,15,0.00,,,0.00,338.000000,,2013-05-09 22:42:00,
2013-05-09 17:02:00,73.0,23.0,-100.00,West,261,2.0,6.0,15,0.00,,,0.00,338.000000,,2013-05-09 23:02:00,
2013-05-09 17:12:00,73.0,23.0,-100.00,West,261,2.0,6.0,15,0.00,,,0.00,338.000000,,2013-05-09 23:12:00,
2013-05-09 17:21:00,73.0,23.0,-100.00,West,261,2.0,6.0,15,0.00,,,0.00,338.000000,,2013-05-09 23:21:00,
2013-05-09 17:32:00,73.0,23.0,-100.00,West,261,2.0,6.0,15,0.00,,,0.00,338.000000,,2013-05-09 23:32:00,
2013-05-09 17:42:00,75.0,26.0,-100.00,NW,313,5.0,9.0,16,0.00,,,0.00,349.000000,,2013-05-09 23:42:00,
2013-05-09 18:01:00,75.0,26.0,-100.00,NW,313,5.0,9.0,16,0.00,,,0.00,349.000000,,2013-05-10 00:01:00,
2013-05-09 18:11:00,75.0,26.0,-100.00,NW,313,5.0,9.0,16,0.00,,,0.00,349.000000,,2013-05-10 00:11:00,
2013-05-09 18:22:00,75.0,26.0,-100.00,NW,313,5.0,9.0,16,0.00,,,0.00,349.000000,,2013-05-10 00:22:00,
2013-05-09 18:32:00,75.0,26.0,-100.00,NW,313,5.0,9.0,16,0.00,,,0.00,349.000000,,2013-05-10 00:32:00,
2013-05-09 18:42:00,68.0,27.0,-100.00,NW,312,4.0,10.0,21,0.00,,,0.00,275.000000,,2013-05-10 00:42:00,
2013-05-09 19:01:00,68.0,27.0,-100.00,NW,312,4.0,10.0,21,0.00,,,0.00,275.000000,,2013-05-10 01:01:00,
2013-05-09 19:11:00,68.0,27.0,-100.00,NW,312,4.0,10.0,21,0.00,,,0.00,275.000000,,2013-05-10 01:11:00,
2013-05-09 19:21:00,68.0,27.0,-100.00,NW,312,4.0,10.0,21,0.00,,,0.00,275.000000,,2013-05-10 01:21:00,
2013-05-09 19:32:00,68.0,27.0,-100.00,NW,312,4.0,10.0,21,0.00,,,0.00,275.000000,,2013-05-10 01:32:00,
2013-05-09 19:42:00,64.0,28.0,-100.00,North,359,2.0,7.0,26,0.00,,,0.00,41.000000,,2013-05-10 01:42:00,
2013-05-09 20:02:00,64.0,28.0,-100.00,North,359,2.0,7.0,26,0.00,,,0.00,41.000000,,2013-05-10 02:02:00,
2013-05-09 20:11:00,64.0,28.0,-100.00,North,359,2.0,7.0,26,0.00,,,0.00,41.000000,,2013-05-10 02:11:00,
2013-05-09 20:21:00,64.0,28.0,-100.00,North,359,2.0,7.0,26,0.00,,,0.00,41.000000,,2013-05-10 02:21:00,
2013-05-09 20:32:00,64.0,28.0,-100.00,North,359,2.0,7.0,26,0.00,,,0.00,41.000000,,2013-05-10 02:32:00,
2013-05-09 20:42:00,60.0,28.0,-100.00,NNW,331,1.0,4.0,30,0.00,,,0.00,1.000000,,2013-05-10 02:42:00,
2013-05-09 21:01:00,60.0,28.0,-100.00,NNW,331,1.0,4.0,30,0.00,,,0.00,1.000000,,2013-05-10 03:01:00,
2013-05-09 21:11:00,60.0,28.0,-100.00,NNW,331,1.0,4.0,30,0.00,,,0.00,1.000000,,2013-05-10 03:11:00,
2013-05-09 21:22:00,60.0,28.0,-100.00,NNW,331,1.0,4.0,30,0.00,,,0.00,1.000000,,2013-05-10 03:22:00,
2013-05-09 21:33:00,60.0,28.0,-100.00,NNW,331,1.0,4.0,30,0.00,,,0.00,1.000000,,2013-05-10 03:33:00,
2013-05-09 21:42:00,60.0,30.0,-100.00,North,5,3.0,6.0,32,0.00,,,0.00,0.000000,,2013-05-10 03:42:00,
2013-05-09 22:03:00,60.0,30.0,-100.00,North,5,3.0,6.0,32,0.00,,,0.00,0.000000,,2013-05-10 04:03:00,
2013-05-09 22:12:00,60.0,30.0,-100.00,North,5,3.0,6.0,32,0.00,,,0.00,0.000000,,2013-05-10 04:12:00,
2013-05-09 22:23:00,60.0,30.0,-100.00,North,5,3.0,6.0,32,0.00,,,0.00,0.000000,,2013-05-10 04:23:00,
2013-05-09 22:33:00,60.0,30.0,-100.00,North,5,3.0,6.0,32,0.00,,,0.00,0.000000,,2013-05-10 04:33:00,
2013-05-09 22:42:00,61.0,30.0,-100.00,North,358,2.0,8.0,31,0.00,,,0.00,0.000000,,2013-05-10 04:42:00,
2013-05-09 23:02:00,61.0,30.0,-100.00,North,358,2.0,8.0,31,0.00,,,0.00,0.000000,,2013-05-10 05:02:00,
2013-05-09 23:12:00,61.0,30.0,-100.00,North,358,2.0,8.0,31,0.00,,,0.00,0.000000,,2013-05-10 05:12:00,
2013-05-09 23:22:00,61.0,30.0,-100.00,North,358,2.0,8.0,31,0.00,,,0.00,0.000000,,2013-05-10 05:22:00,
2013-05-09 23:32:00,61.0,30.0,-100.00,North,358,2.0,8.0,31,0.00,,,0.00,0.000000,,2013-05-10 05:32:00,
2013-05-09 23:42:00,61.0,31.0,-100.00,WNW,303,4.0,8.0,32,0.00,,,0.00,0.000000,,2013-05-10 05:42:00,